Regional Weather Roundup
Issued by NWS Sterling, VA

Home | Current Version | Previous Version | Graphics & Text | Print | Product List | Glossary On
Versions: 1 2 3 4 5 6 7 8 9 10 11 12 13 14 15 16 17 18 19 20 21 22 23 24 25 26 27 28 29 30 31 32 33 34 35 36 37 38 39 40 41 42 43 44 45 46 47 48 49 50
000
ASUS41 KLWX 221011
RWRLWX

REGIONAL WEATHER ROUNDUP
NATIONAL WEATHER SERVICE BALTIMORE MD/WASHINGTON DC
600 AM EDT SUN APR 22 2018

Note: "FAIR" indicates few or no clouds below 12,000 feet
with no significant weather and/or obstructions to visibility.
 TC=TEMPERATURE CELSIUS

 * =Non NWS site. Station does not report precipitation (e.g. rain,
    snow, etc.), thunder, or fog.

DCZ001-MDZ009-015-VAZ040>042-051-053>054-221100-
WASHINGTON METRO

CITY           SKY/WX    TMP DP  RH WIND       PRES   REMARKS
WASHINGTON NAT MOCLDY    49  38  65 S6        30.39S
DULLES         CLOUDY    46  38  73 SE5       30.37S
ANDREWS AFB    FAIR      44  37  78 CALM      30.38R
FT BELVOIR     MOCLDY    42  37  83 CALM      30.38S
QUANTICO       FAIR      47  43  86 S8        30.40R
COLLEGE PARK*  FAIR      43  38  82 CALM      30.38S
LEESBURG*      FAIR      46  37  71 CALM      30.38S
MANASSAS*      FAIR      40  38  93 CALM      30.38S
GAITHERSBURG*  FAIR      45  35  68 CALM      30.38S

$$

MDZ006>007-011-014-221100-
BALTIMORE METRO

CITY           SKY/WX    TMP DP  RH WIND       PRES   REMARKS
BWI AIRPORT    MOCLDY    47  37  68 CALM      30.39R
MD SCIENCE CTR   N/A     50  36  58 MISG      30.41R
MARTIN STATE   CLOUDY    48  43  81 CALM      30.42R
ANNAPOLIS      FAIR      50  40  68 E5        30.39R
FORT MEADE*    FAIR      37  36  93 NE7       30.42R WCI  32

$$

MDZ012-015-019>023-221100-
MARYLAND EASTERN SHORE

CITY           SKY/WX    TMP DP  RH WIND       PRES   REMARKS
OCEAN CITY     FAIR      43  40  89 W5        30.41R
SALISBURY      FAIR      39  36  89 CALM      30.41R
BAY BRIDGE AP* FAIR      46  39  76 NE3       30.41R
CAMBRIDGE*       N/A     43  41  93 CALM      30.40S
EASTON*        PTCLDY    46  41  81 CALM      30.43R

$$

MDZ017>025-221100-
SOUTHERN MARYLAND

CITY           SKY/WX    TMP DP  RH WIND       PRES   REMARKS
PATUXENT RIVER FAIR      47  38  71 CALM      30.39R
ST INIGOES     FAIR      44  38  79 CALM      30.39R
LEONARDTOWN*   FAIR      43  37  81 CALM      30.41S

$$

MDZ003>005-221100-
NORTH CENTRAL MARYLAND

CITY           SKY/WX    TMP DP  RH WIND       PRES   REMARKS
FREDERICK*     FAIR      43  34  70 CALM      30.41R
HAGERSTOWN APT CLOUDY    47  34  60 N3        30.36S
WESTMINSTER*   MOCLDY    46  34  61 E5        30.38S

$$

MDZ501>502-221100-
WESTERN MARYLAND

CITY           SKY/WX    TMP DP  RH WIND       PRES   REMARKS
OAKLAND*       FAIR      39  21  48 E10       30.30S WCI  32
CUMBERLAND*    FAIR      46  30  53 N6        30.39R

$$

VAZ025>031-221100-
SHENANDOAH VALLEY

CITY           SKY/WX    TMP DP  RH WIND       PRES   REMARKS
WINCHESTER*    CLOUDY    43  32  65 CALM      30.36R
FRONT ROYAL*   FAIR      41  32  70 CALM      30.33S
LURAY*         FAIR      41  36  81 CALM      30.34R
NEW MARKET*    FAIR      38  35  91 CALM      30.34R
STAUNTON*      FAIR      41  36  81 CALM      30.35S
WAYNESBORO*    FAIR      48  31  52 CALM      30.33S

$$

WVZ021-048>050-054>055-221100-
EASTERN WEST VIRGINIA PANHANDLE

CITY           SKY/WX    TMP DP  RH WIND       PRES   REMARKS
MARTINSBURG    FAIR      45  32  60 N6        30.36R
PETERSBURG*    CLOUDY    38  35  89 CALM      30.34S

$$

VAZ036>039-050-221100-
CENTRAL FOOTHILLS

CITY           SKY/WX    TMP DP  RH WIND       PRES   REMARKS
CHARLOTTESVILL FAIR      48  34  58 CALM      30.35R
CULPEPER*      FAIR      41  37  86 CALM      30.39R
ORANGE*        FAIR      43  39  87 CALM      30.36S
GORDONSVILLE*  FAIR      45  42  88 CALM      30.36R
WARRENTON*     FAIR      42  36  80 CALM      30.37R

$$

VAZ055>057-221100-
NORTH AND CENTRAL PIEDMONT

CITY           SKY/WX    TMP DP  RH WIND       PRES   REMARKS
FREDERICKSBRG* FAIR      46  41  81 SE3       30.37F
STAFFORD*      FAIR      41  39  93 CALM      30.42S

$$

NCZ024-NYZ072-PAZ021-071-VAZ022-071-221100-
OTHER REGIONAL OBSERVATIONS

CITY           SKY/WX    TMP DP  RH WIND       PRES   REMARKS
NEW YORK CITY  FAIR      44  17  33 CALM      30.40S
PHILADELPHIA   FAIR      44  25  47 CALM      30.42R
PITTSBURGH     MOCLDY    45  23  42 NE7       30.31S
ROANOKE        FAIR      46  34  62 CALM      30.34S
RICHMOND       FAIR      44  42  93 SE5       30.38S
RALEIGH        FAIR      45  40  82 CALM      30.36R

$$

ANZ530>537-221100-
MARINE OBSERVATIONS

STATION/POSITION TIME  TEMP    WIND        PRES
                       AIR SEA DIR/SP/G
                 (UTC) (F)     (DEG/KT/KT) (MB)
THOMAS PT LIGHT  1000   49 51  210/  2/  3 1030.3R
BALT KEY BRIDGE  0948   49      70/  5/  6 1029.5R
COVE POINT       0948   48     180/  3/  4 1029.9R
LEWISETTA        0948   48 53  230/  4/  5 1029.2R
SOLOMONS ISLAND  0948   48 53  260/  3/  4 1029.0R
PINEY POINT      0936          240/  2/  3   N/A

$$




USA.gov is the U.S. government's official web portal to all federal, state and local government web resources and services.